This is the latest recevied weather packets stored in our database for station/object KC3WWU. If no packets are shown the sender has not sent any weather packets the latest 10 day(s).
| Time | Temp. | Humidity | Pressure | Rain* | Wind** | Luminosity | Snow |
|---|---|---|---|---|---|---|---|
| 1777651518 | 11.11° C | 61% | 1009.6 hPa | 0 mm | - | 722 W/m² | - |
| 1777651215 | 10.56° C | 63% | 1009.7 hPa | 0 mm | - | 557 W/m² | - |
| 1777650912 | 11.11° C | 61% | 1009.7 hPa | 0 mm | - | 343 W/m² | - |
| 1777650609 | 11.11° C | 62% | 1010 hPa | 0 mm | - | 290 W/m² | - |
| 1777650306 | 11.11° C | 64% | 1009.9 hPa | 0 mm | - | 439 W/m² | - |
| 1777650003 | 11.67° C | 60% | 1009.5 hPa | 0 mm | - | 360 W/m² | - |
| 1777649701 | 11.67° C | 62% | 1010 hPa | 0 mm | - | 725 W/m² | - |
| 1777649396 | 10.56° C | 61% | 1009.8 hPa | 0 mm | - | 694 W/m² | - |
| 1777649094 | 10° C | 61% | 1009.9 hPa | 0 mm | - | 461 W/m² | - |
| 1777648791 | 10° C | 66% | 1010 hPa | 0 mm | - | 179 W/m² | - |
| 1777648488 | 10.56° C | 67% | 1010.2 hPa | 0 mm | - | 237 W/m² | - |
| 1777648184 | 10.56° C | 62% | 1010 hPa | 0 mm | - | 556 W/m² | - |
| 1777647880 | 10.56° C | 62% | 1010.3 hPa | 0 mm | - | 596 W/m² | - |
| 1777647576 | 10° C | 64% | 1010.3 hPa | 0 mm | - | 584 W/m² | - |
| 1777647273 | 10° C | 64% | 1010.7 hPa | 0 mm | - | 574 W/m² | - |
| 1777646971 | 10° C | 62% | 1010.7 hPa | 0 mm | - | 315 W/m² | - |
| 1777646666 | 10° C | 68% | 1010.4 hPa | 0 mm | - | 413 W/m² | - |
| 1777646362 | 9.44° C | 70% | 1010.8 hPa | 0 mm | - | 379 W/m² | - |
| 1777646059 | 8.33° C | 74% | 1010.8 hPa | 0 mm | - | 315 W/m² | - |
| 1777645755 | 8.33° C | 74% | 1010.7 hPa | 0 mm | - | 245 W/m² | - |
| 1777645453 | 8.33° C | 76% | 1010.8 hPa | 0 mm | - | 272 W/m² | - |
| 1777645148 | 7.78° C | 76% | 1010.7 hPa | 0 mm | - | 240 W/m² | - |
| 1777644844 | 8.33° C | 78% | 1011 hPa | 0 mm | - | 238 W/m² | - |
| 1777644543 | 7.78° C | 79% | 1010.9 hPa | 0 mm | - | 253 W/m² | - |
| 1777644239 | 7.78° C | 80% | 1010.8 hPa | 0 mm | - | 261 W/m² | - |
* Rain latest hour (hover to see other rain measurements)
** Current wind speed in m/s (hover to see current wind gust speed)